Location: Arena
(42.5007°N, 9.4650°E)
Time: 02:48:32
(UTC+00:00)

SL-08 R/B - Pass Details

Date: 09 April 2020
Orbit: 951 x 1017 km, 82.9° (Epoch: 02 June)

Event Time Altitude Azimuth Distance (km) Brightness Sun altitude
Rises 20:27:17 0° 353° (N) 3,643 8.2 -25.5°
Reaches altitude 10° 20:29:46 10° 354° (N) 2,698 7.4 -25.9°
Maximum altitude 20:35:58 82° 83° (E) 982 4.3 -26.7°
Enters shadow 20:36:45 69° 150° (SSE) 1,033 4.3 -26.8°
